| time (UTC) | temp C | wind direction | speed KPH | gust KPH | rain 1hr cm | rain 24hr cm | rain mn cm | humidity % | barometer mb |
| 20260506164542 | 12 | 325 | 3.2 | 16.1 | 0.00 | 3.38 | 0.61 | 62 | 1012.1 |
| 20260506163044 | 12 | 71 | 4.8 | 14.5 | 0.00 | 3.38 | 0.61 | 64 | 1011.7 |
| 20260506161552 | 12 | 346 | 4.8 | 14.5 | 0.00 | 3.38 | 0.61 | 67 | 1011.5 |
| 20260506160046 | 12 | 320 | 1.6 | 12.9 | 0.00 | 3.38 | 0.61 | 66 | 1011.5 |
| 20260506154544 | 12 | 315 | 3.2 | 14.5 | 0.00 | 3.38 | 0.61 | 70 | 1011.5 |
| 20260506153047 | 12 | 55 | 3.2 | 14.5 | 0.00 | 3.38 | 0.61 | 73 | 1011.1 |
| 20260506151546 | 11 | 315 | 3.2 | 11.3 | 0.00 | 3.38 | 0.61 | 76 | 1010.8 |
| 20260506150046 | 10 | 315 | 1.6 | 8.0 | 0.00 | 3.38 | 0.61 | 82 | 1010.5 |
| 20260506144559 | 10 | 12 | 3.2 | 6.4 | 0.00 | 3.38 | 0.61 | 87 | 1010.5 |
| 20260506143041 | 9 | 276 | 3.2 | 11.3 | 0.00 | 3.38 | 0.61 | 90 | 1010.3 |
| 20260506141545 | 8 | 0 | 0.0 | 4.8 | 0.00 | 3.38 | 0.61 | 93 | 1010.2 |
| 20260506140045 | 8 | 317 | 0.0 | 4.8 | 0.00 | 3.38 | 0.61 | 94 | 1010.0 |
| 20260506134549 | 8 | 268 | 0.0 | 4.8 | 0.00 | 3.38 | 0.61 | 94 | 1010.2 |
| 20260506133045 | 8 | 0 | 0.0 | 3.2 | 0.00 | 3.38 | 0.61 | 95 | 1010.1 |
| 20260506131547 | 7 | 0 | 0.0 | 3.2 | 0.00 | 3.38 | 0.61 | 95 | 1010.1 |
| 20260506130049 | 7 | 0 | 0.0 | 3.2 | 0.00 | 3.38 | 0.61 | 95 | 1009.8 |
| 20260506124546 | 7 | 252 | 0.0 | 3.2 | 0.00 | 3.38 | 0.61 | 95 | 1009.6 |
| 20260506123044 | 7 | 0 | 0.0 | 1.6 | 0.00 | 3.38 | 0.61 | 95 | 1009.4 |
| 20260506121542 | 7 | 0 | 0.0 | 1.6 | 0.00 | 3.38 | 0.61 | 95 | 1009.4 |
| 20260506120054 | 7 | 0 | 0.0 | 1.6 | 0.00 | 3.38 | 0.61 | 95 | 1009.4 |
| 20260506114546 | 7 | 0 | 0.0 | 0.0 | 0.00 | 3.38 | 0.61 | 95 | 1009.3 |
| 20260506113045 | 7 | 0 | 0.0 | 0.0 | 0.00 | 3.38 | 0.61 | 95 | 1008.9 |
| 20260506111541 | 7 | 0 | 0.0 | 1.6 | 0.00 | 3.38 | 0.61 | 95 | 1008.6 |
| 20260506110043 | 6 | 0 | 0.0 | 3.2 | 0.00 | 3.38 | 0.61 | 95 | 1008.4 |
| 20260506104548 | 6 | 323 | 0.0 | 3.2 | 0.00 | 3.38 | 0.61 | 95 | 1008.1 |
| 20260506103045 | 7 | 0 | 0.0 | 3.2 | 0.00 | 3.38 | 0.61 | 95 | 1008.1 |
| 20260506101542 | 6 | 0 | 0.0 | 3.2 | 0.03 | 3.38 | 0.61 | 94 | 1008.2 |
| 20260506100044 | 6 | 0 | 0.0 | 3.2 | 0.03 | 3.38 | 0.61 | 94 | 1007.4 |
| 20260506094544 | 7 | 0 | 0.0 | 3.2 | 0.03 | 3.38 | 0.61 | 94 | 1007.4 |
| 20260506093045 | 7 | 0 | 0.0 | 3.2 | 0.03 | 3.38 | 0.61 | 94 | 1007.9 |
| 20260506091545 | 7 | 0 | 0.0 | 4.8 | 0.03 | 3.35 | 0.58 | 94 | 1008.6 |
| 20260506090044 | 7 | 324 | 0.0 | 6.4 | 0.10 | 3.35 | 0.58 | 94 | 1008.3 |
| 20260506084542 | 7 | 304 | 1.6 | 4.8 | 0.18 | 3.35 | 0.58 | 94 | 1008.0 |
| 20260506083042 | 7 | 321 | 0.0 | 3.2 | 0.20 | 3.35 | 0.58 | 94 | 1007.8 |
| 20260506081545 | 7 | 55 | 0.0 | 3.2 | 0.23 | 3.30 | 0.53 | 94 | 1007.7 |
| 20260506073047 | 7 | 0 | 0.0 | 1.6 | 0.15 | 3.15 | 0.38 | 94 | 1007.9 |
| 20260506071539 | 7 | 0 | 0.0 | 1.6 | 0.08 | 3.07 | 0.30 | 94 | 1007.7 |
| 20260506061542 | 7 | 0 | 0.0 | 1.6 | 0.10 | 2.97 | 0.23 | 94 | 1008.0 |
| 20260506044548 | 8 | 36 | 0.0 | 4.8 | 0.10 | 2.84 | 0.08 | 94 | 1008.5 |
| 20260506043046 | 8 | 64 | 0.0 | 4.8 | 0.10 | 2.82 | 0.05 | 94 | 1008.5 |
| 20260506041552 | 8 | 20 | 0.0 | 3.2 | 0.13 | 2.79 | 0.03 | 94 | 1008.6 |
| 20260506040044 | 8 | 0 | 0.0 | 3.2 | 0.18 | 2.77 | 0.00 | 94 | 1008.8 |
| 20260506034553 | 8 | 0 | 0.0 | 3.2 | 0.28 | 2.74 | 2.74 | 94 | 1009.1 |
| 20260506033042 | 8 | 324 | 0.0 | 6.4 | 0.36 | 2.72 | 2.72 | 94 | 1009.2 |
| 20260506031545 | 9 | 0 | 1.6 | 4.8 | 0.41 | 2.64 | 2.64 | 94 | 1009.2 |
| 20260506030047 | 9 | 0 | 0.0 | 1.6 | 0.43 | 2.59 | 2.59 | 94 | 1009.2 |
| 20260506024555 | 9 | 0 | 0.0 | 1.6 | 0.43 | 2.46 | 2.46 | 94 | 1009.3 |
| 20260506023042 | 9 | 9 | 0.0 | 1.6 | 0.41 | 2.36 | 2.36 | 94 | 1009.1 |
| 20260506021551 | 9 | 0 | 0.0 | 3.2 | 0.33 | 2.24 | 2.24 | 94 | 1008.8 |
| 20260506020044 | 9 | 352 | 0.0 | 6.4 | 0.25 | 2.16 | 2.16 | 94 | 1008.6 |
| 20260506014544 | 9 | 43 | 1.6 | 4.8 | 0.15 | 2.03 | 2.03 | 94 | 1008.5 |
| 20260506013047 | 9 | 59 | 1.6 | 4.8 | 0.13 | 1.96 | 1.96 | 94 | 1008.6 |
| 20260506011607 | 9 | 0 | 0.0 | 3.2 | 0.13 | 1.91 | 1.91 | 94 | 1008.6 |
| 20260506010048 | 9 | 337 | 1.6 | 6.4 | 0.23 | 1.91 | 1.91 | 94 | 1008.3 |
| 20260506004546 | 9 | 55 | 0.0 | 4.8 | 0.23 | 1.88 | 1.88 | 93 | 1008.1 |
| 20260506003044 | 9 | 267 | 3.2 | 6.4 | 0.18 | 1.83 | 1.83 | 93 | 1008.8 |
| 20260506001544 | 9 | 67 | 0.0 | 8.0 | 0.15 | 1.78 | 1.78 | 93 | 1007.9 |
| 20260506000051 | 9 | 40 | 1.6 | 9.7 | 0.08 | 1.68 | 1.68 | 93 | 1007.8 |
| 20260505234551 | 9 | 16 | 0.0 | 6.4 | 0.13 | 1.65 | 1.65 | 93 | 1007.8 |
| 20260505233046 | 9 | 0 | 1.6 | 8.0 | 0.33 | 1.65 | 1.65 | 92 | 1007.8 |
| 20260505231544 | 10 | 42 | 0.0 | 6.4 | 0.33 | 1.63 | 1.63 | 92 | 1008.1 |
| 20260505230043 | 10 | 321 | 0.0 | 4.8 | 0.36 | 1.60 | 1.60 | 91 | 1008.4 |
| 20260505224543 | 10 | 0 | 1.6 | 6.4 | 0.41 | 1.52 | 1.52 | 91 | 1008.5 |
| 20260505223047 | 10 | 310 | 0.0 | 4.8 | 0.30 | 1.32 | 1.32 | 91 | 1008.0 |
| 20260505221554 | 11 | 322 | 1.6 | 6.4 | 0.36 | 1.30 | 1.30 | 90 | 1008.1 |
| 20260505220056 | 11 | 22 | 1.6 | 6.4 | 0.46 | 1.24 | 1.24 | 90 | 1007.8 |
| 20260505214550 | 12 | 311 | 3.2 | 6.4 | 0.48 | 1.12 | 1.12 | 90 | 1007.8 |
| 20260505213040 | 12 | 329 | 0.0 | 3.2 | 0.58 | 1.02 | 1.02 | 89 | 1007.5 |
| 20260505211545 | 13 | 333 | 1.6 | 8.0 | 0.64 | 0.91 | 0.91 | 90 | 1007.6 |
| 20260505210050 | 13 | 0 | 1.6 | 3.2 | 0.58 | 0.76 | 0.76 | 90 | 1007.6 |
| 20260505204552 | 13 | 243 | 0.0 | 1.6 | 0.53 | 0.64 | 0.64 | 90 | 1007.5 |
| 20260505203042 | 14 | 243 | 0.0 | 3.2 | 0.41 | 0.43 | 0.43 | 89 | 1007.4 |
| 20260505201549 | 14 | 268 | 0.0 | 3.2 | 0.28 | 0.28 | 0.28 | 88 | 1007.4 |
| 20260505200046 | 15 | 0 | 0.0 | 3.2 | 0.18 | 0.18 | 0.18 | 86 | 1007.4 |
| 20260505194551 | 15 | 0 | 0.0 | 3.2 | 0.10 | 0.10 | 0.10 | 85 | 1007.6 |
| 20260505193044 | 15 | 0 | 0.0 | 3.2 | 0.03 | 0.03 | 0.03 | 82 | 1007.8 |
| 20260505191540 | 16 | 0 | 0.0 | 4.8 | 0.00 | 0.00 | 0.00 | 78 | 1007.7 |
| 20260505190045 | 17 | 258 | 1.6 | 4.8 | 0.00 | 0.00 | 0.00 | 74 | 1007.7 |
| 20260505184550 | 17 | 273 | 1.6 | 6.4 | 0.00 | 0.00 | 0.00 | 71 | 1007.7 |
| 20260505183050 | 17 | 257 | 3.2 | 9.7 | 0.00 | 0.00 | 0.00 | 68 | 1007.5 |
| 20260505181546 | 18 | 218 | 1.6 | 6.4 | 0.00 | 0.00 | 0.00 | 68 | 1007.6 |
| 20260505180041 | 18 | 265 | 1.6 | 6.4 | 0.00 | 0.00 | 0.00 | 68 | 1007.4 |
| 20260505174547 | 18 | 304 | 3.2 | 11.3 | 0.00 | 0.00 | 0.00 | 67 | 1007.3 |
| 20260505173044 | 18 | 246 | 3.2 | 9.7 | 0.00 | 0.00 | 0.00 | 66 | 1007.4 |
| 20260505171546 | 18 | 272 | 3.2 | 11.3 | 0.00 | 0.00 | 0.00 | 65 | 1007.4 |
| 20260505170049 | 18 | 248 | 3.2 | 11.3 | 0.00 | 0.00 | 0.00 | 64 | 1007.3 |